(137057) = 1998 VK44 = 2002 BA26

Discovered at Anderson Mesa on 1998-11-14 by LONEOS.

Orbit

Orbit type: Hungaria

Note: WebGL enabled browser required.

epoch2024-03-31.0
epoch JD2460400.5
perihelion date2023-09-07.51740
perihelion JD2460195.01740
argument of perihelion (°)64.07345
ascending node (°)64.65211
inclination (°)23.06833
eccentricity0.0775519
perihelion distance (AU)1.7890421
Tisserand w.r.t. Jupiter3.8
ΔV w.r.t. Earth (km/sec)11.1
semimajor axis (AU)1.9394502
mean anomaly (°)74.98268
mean daily motion (°/day)0.36491010
aphelion distance (AU)2.090
period (years)2.7
P-vector [x]-0.56060019
P-vector [y]0.54735416
P-vector [z]0.62139428
Q-vector [x]-0.74855652
Q-vector [y]-0.65584545
Q-vector [z]-0.09762109
absolute magnitude16.74
phase slope0.15
uncertainty0
referenceMPEC 2024-F07
observations used710
oppositions14
arc length (days)9255
first opposition used1998
last opposition used2024
residual rms (arc-secs)0.79
perturbers coarse indicatorM-v
perturbers precise indicator003Ek
first observation date used1998-11-13.0
last observation date used2024-03-16.0
computer nameMPCLINUX
JD of orbit computation2456966.810441
perihelion JD uncertainty (days)1.8158E-04
argument of perihelion uncertainty (°)6.7972E-05
ascending node uncertainty (°)1.6902E-05
inclination uncertainty (°)5.7801E-06
eccentricity uncertainty 5.6386E-08
perihelion distance uncertainty (AU)1.0679E-07
Minimum Orbit Intersection Distances (in AU)
for orbit epoch: 2460400.5, reference: E2024-GD4
Mercury1.46015
Venus1.11089
Earth0.86116
Mars0.32476
Jupiter3.07649
Saturn7.21572
Uranus16.7449
Neptune27.9113

Observations

724 total observations over interval: 1998 11 13.38450 – 2024 03 16.634874
These data are available for download (format description).

Date (UT) J2000 RA J2000 Dec Magn Location Ref
1998 11 13.38450 03 45 22.42 +09 35 20.4 18.4   704 – Lincoln Laboratory ETS, New Mexico MPS 51457
1998 11 13.39433 03 45 21.22 +09 35 29.4 18.3   704 – Lincoln Laboratory ETS, New Mexico MPS 51457
1998 11 13.40405 03 45 20.35 +09 35 34.2 18.3   704 – Lincoln Laboratory ETS, New Mexico MPS 51457
1998 11 13.41378 03 45 19.32 +09 35 42.0 18.8   704 – Lincoln Laboratory ETS, New Mexico MPS 51457
1998 11 13.42348 03 45 18.05 +09 35 48.8 18.8   704 – Lincoln Laboratory ETS, New Mexico MPS 51457
1998 11 14.32341 03 43 48.07 +09 46 47.4 19.3 R 699 – Lowell Observatory-LONEOS MPS 4140
1998 11 14.34329 03 43 46.06 +09 47 02.6   699 – Lowell Observatory-LONEOS MPS 4140
1998 11 14.36317 03 43 43.97 +09 47 15.4   699 – Lowell Observatory-LONEOS MPS 4140
1998 11 23.29694 03 28 18.97 +11 42 29.5 18.5 R 699 – Lowell Observatory-LONEOS MPS 51457
1998 11 23.32241 03 28 16.22 +11 42 49.1   699 – Lowell Observatory-LONEOS MPS 51457
1998 11 23.34785 03 28 13.48 +11 43 09.8   699 – Lowell Observatory-LONEOS MPS 51457
1998 11 24.31645 03 26 33.24 +11 56 12.4 19.0 R 699 – Lowell Observatory-LONEOS MPS 4140
1998 11 24.34200 03 26 30.48 +11 56 35.5   699 – Lowell Observatory-LONEOS MPS 4140
1998 11 24.36816 03 26 27.70 +11 56 54.3   699 – Lowell Observatory-LONEOS MPS 4140
1998 12 08.80539 03 03 47.76 +15 17 10.1 19.2 V 910 – Caussols-ODAS MPS 51457
1998 12 08.82793 03 03 45.90 +15 17 29.3 19.0 V 910 – Caussols-ODAS MPS 51457
1998 12 08.85062 03 03 43.99 +15 17 48.3 19.1 V 910 – Caussols-ODAS MPS 51457
2001 12 08.44002 09 38 59.56 +41 19 13.4 19.5   704 – Lincoln Laboratory ETS, New Mexico MPS 51457
2001 12 08.45511 09 39 00.72 +41 19 32.3 20.0   704 – Lincoln Laboratory ETS, New Mexico MPS 51457
2001 12 08.47022 09 39 01.63 +41 19 50.0 20.1   704 – Lincoln Laboratory ETS, New Mexico MPS 51457
2001 12 08.48531 09 39 02.68 +41 20 06.6 20.0   704 – Lincoln Laboratory ETS, New Mexico MPS 51457
2001 12 23.38062 09 54 27.16 +46 44 13.5 19.1   704 – Lincoln Laboratory ETS, New Mexico MPS 51457
2001 12 23.39587 09 54 27.77 +46 44 34.8 19.5   704 – Lincoln Laboratory ETS, New Mexico MPS 51457
2001 12 23.41113 09 54 28.36 +46 44 56.2 19.5   704 – Lincoln Laboratory ETS, New Mexico MPS 51457
2001 12 23.42639 09 54 28.98 +46 45 17.2 19.3   704 – Lincoln Laboratory ETS, New Mexico MPS 51457
2001 12 23.44193 09 54 29.55 +46 45 38.2 19.3   704 – Lincoln Laboratory ETS, New Mexico MPS 51457
2002 01 09.292970 09 58 47.080 +53 19 59.07 18.90 V 645 – Apache Point-Sloan Digital Sky Survey MPS 79524
2002 01 09.296442 09 58 47.007 +53 20 03.83 19.65   645 – Apache Point-Sloan Digital Sky Survey MPS 79524
2002 01 26.32835 09 44 31.73 +58 50 06.8 18.3   704 – Lincoln Laboratory ETS, New Mexico MPS 50074
2002 01 26.34328 09 44 30.45 +58 50 20.5 18.7   704 – Lincoln Laboratory ETS, New Mexico MPS 50074
2002 01 26.35923 09 44 29.07 +58 50 34.6 18.8   704 – Lincoln Laboratory ETS, New Mexico MPS 50074
2002 01 26.37440 09 44 27.66 +58 50 48.1 18.9   704 – Lincoln Laboratory ETS, New Mexico MPS 50074
2002 02 01.31072 09 35 36.07 +60 07 02.1 18.4   704 – Lincoln Laboratory ETS, New Mexico MPS 50074
2002 02 01.32539 09 35 34.47 +60 07 12.1 19.0   704 – Lincoln Laboratory ETS, New Mexico MPS 50074
2002 02 01.34135 09 35 32.85 +60 07 22.3 18.3   704 – Lincoln Laboratory ETS, New Mexico MPS 50074
2002 02 01.35598 09 35 31.35 +60 07 31.6 18.7   704 – Lincoln Laboratory ETS, New Mexico MPS 50074
2002 02 01.37067 09 35 29.86 +60 07 41.7 18.2   704 – Lincoln Laboratory ETS, New Mexico MPS 50074
2002 02 11.29181 09 18 47.64 +61 16 25.8 18.6 R 699 – Lowell Observatory-LONEOS MPS 51457
2002 02 11.31430 09 18 45.41 +61 16 30.3   699 – Lowell Observatory-LONEOS MPS 51457
2002 02 11.33670 09 18 42.90 +61 16 34.1   699 – Lowell Observatory-LONEOS MPS 51457
2002 02 11.35900 09 18 40.49 +61 16 38.6   699 – Lowell Observatory-LONEOS MPS 51457
2002 03 03.23770 08 53 35.31 +60 03 35.0 19.3   704 – Lincoln Laboratory ETS, New Mexico MPS 52588
2002 03 03.25131 08 53 34.76 +60 03 27.0 19.4   704 – Lincoln Laboratory ETS, New Mexico MPS 52588
2002 03 03.26538 08 53 34.12 +60 03 19.3 19.0   704 – Lincoln Laboratory ETS, New Mexico MPS 52588
2002 03 03.27940 08 53 33.32 +60 03 11.0 19.7   704 – Lincoln Laboratory ETS, New Mexico MPS 52588
2002 03 03.29305 08 53 32.82 +60 03 03.4 19.4   704 – Lincoln Laboratory ETS, New Mexico MPS 52588
2002 03 05.17759 08 52 24.57 +59 44 28.2 19.2   704 – Lincoln Laboratory ETS, New Mexico MPS 52588
2002 03 05.18382 08 52 24.32 +59 44 23.5 19.6   704 – Lincoln Laboratory ETS, New Mexico MPS 52588
2002 03 05.19309 08 52 24.01 +59 44 17.9 19.4   704 – Lincoln Laboratory ETS, New Mexico MPS 52588
2002 03 05.19839 08 52 23.81 +59 44 14.6 19.1   704 – Lincoln Laboratory ETS, New Mexico MPS 52588
2002 03 05.20783 08 52 23.38 +59 44 09.2 19.4   704 – Lincoln Laboratory ETS, New Mexico MPS 52588
2002 03 05.21195 08 52 23.25 +59 44 06.5 19.4   704 – Lincoln Laboratory ETS, New Mexico MPS 52588
2002 03 05.22260 08 52 22.76 +59 43 59.9 19.3   704 – Lincoln Laboratory ETS, New Mexico MPS 52588
2002 03 05.22615 08 52 22.61 +59 43 58.4 19.1   704 – Lincoln Laboratory ETS, New Mexico MPS 52588
2002 03 05.23740 08 52 22.30 +59 43 51.2 19.7   704 – Lincoln Laboratory ETS, New Mexico MPS 52588
2005 03 13.41480 15 04 58.86 +15 57 25.5 18.9 R 699 – Lowell Observatory-LONEOS MPS 128859
2005 03 13.43104 15 04 58.69 +15 57 29.7   699 – Lowell Observatory-LONEOS MPS 128859
2005 03 13.44726 15 04 58.42 +15 57 32.5   699 – Lowell Observatory-LONEOS MPS 128859
2005 03 13.51071 15 04 57.51 +15 57 46.9   699 – Lowell Observatory-LONEOS MPS 128859
2005 04 01.46365 14 52 25.95 +16 40 44.9 18.8 R 699 – Lowell Observatory-LONEOS MPS 130132
2005 04 01.46446 14 52 25.91 +16 40 44.2 18.6 R 699 – Lowell Observatory-LONEOS MPS 130132
2005 04 01.47827 14 52 24.94 +16 40 44.4   699 – Lowell Observatory-LONEOS MPS 130132
2005 04 01.47908 14 52 24.96 +16 40 45.1   699 – Lowell Observatory-LONEOS MPS 130132
2005 04 01.48801 14 52 24.20 +16 40 45.2   699 – Lowell Observatory-LONEOS MPS 130132
2005 04 01.48884 14 52 24.28 +16 40 44.6   699 – Lowell Observatory-LONEOS MPS 130132
2005 04 01.49775 14 52 23.59 +16 40 44.5   699 – Lowell Observatory-LONEOS MPS 130132
2005 04 01.49857 14 52 23.67 +16 40 44.5   699 – Lowell Observatory-LONEOS MPS 130132
2005 04 12.27542 14 38 33.76 +16 23 37.0 18.4 R 699 – Lowell Observatory-LONEOS MPS 131488
2005 04 12.29488 14 38 32.06 +16 23 33.0   699 – Lowell Observatory-LONEOS MPS 131488
2005 04 12.31433 14 38 30.22 +16 23 28.3   699 – Lowell Observatory-LONEOS MPS 131488
2005 04 12.33381 14 38 28.50 +16 23 24.0   699 – Lowell Observatory-LONEOS MPS 131488
2005 04 12.43248 14 38 19.56 +16 23 03.5 18.8   704 – Lincoln Laboratory ETS, New Mexico MPS 131488
2005 04 12.44261 14 38 18.58 +16 22 59.5 18.9   704 – Lincoln Laboratory ETS, New Mexico MPS 131488
2005 04 12.45225 14 38 17.74 +16 22 58.9 19.2   704 – Lincoln Laboratory ETS, New Mexico MPS 131488
2005 04 12.46203 14 38 16.86 +16 22 55.0 18.9   704 – Lincoln Laboratory ETS, New Mexico MPS 131488
2005 04 16.37832 14 32 25.31 +16 04 57.6 18.2 R 703 – Catalina Sky Survey MPS 132485
2005 04 16.38637 14 32 24.72 +16 04 50.7 17.4 R 703 – Catalina Sky Survey MPS 132485
2005 04 16.39443 14 32 23.77 +16 04 52.0 17.9 R 703 – Catalina Sky Survey MPS 132485
2005 04 16.40249 14 32 22.99 +16 04 50.6 18.5 R 703 – Catalina Sky Survey MPS 132485
2005 05 03.30504 14 06 00.31 +13 29 15.1 18.6 R 703 – Catalina Sky Survey MPS 133200
2005 05 03.31422 14 05 59.44 +13 29 06.9 18.4 R 703 – Catalina Sky Survey MPS 133200
2005 05 03.32300 14 05 58.60 +13 29 00.6 18.2 R 703 – Catalina Sky Survey MPS 133200
2005 05 03.33172 14 05 57.83 +13 28 54.6 18.3 R 703 – Catalina Sky Survey MPS 133200
2005 05 08.28616 13 58 53.32 +12 21 06.8 18.9 V 703 – Catalina Sky Survey MPS 133820
2005 05 08.29319 13 58 52.64 +12 21 01.1 19.0 V 703 – Catalina Sky Survey MPS 133820
2005 05 08.30029 13 58 52.10 +12 20 55.0 19.2 V 703 – Catalina Sky Survey MPS 133820
2005 05 08.30731 13 58 51.49 +12 20 48.9 19.0 V 703 – Catalina Sky Survey MPS 133820
2005 05 09.26079 13 57 34.48 +12 06 47.5 18.6   704 – Lincoln Laboratory ETS, New Mexico MPS 133820
